TELSTAR 18V (APSTAR 5C) (43611 NORAD) Tracking and Keplerian Element Data

This shows tracking and keplerian element data for the satellite.

Feedback or suggestion? Click here.




ElementValue
Catalog43611
NameTELSTAR 18V (APSTAR 5C)
Epoch Orbit1125
Epoch Day261.6803226
Epoch Year2021
RAAN161.4527
Inclination0.0282
Eccentricity0.0002313
Argument of Perigee12.7761
Mean Anonmoly206.4896
Mean Motion1.00269148
Decay Rate-3.19E-06
L11 43611U 18069A 21261.68032260 -.00000319 00000-0 00000-0 0 9992
L22 43611 0.0282 161.4527 0002313 12.7761 206.4896 1.00269148 11253

Live tracking and technical data element details for TELSTAR 18V (APSTAR 5C) (NORAD 43611). TELSTAR 18V (APSTAR 5C) can be tracked NOW for your location showing map with azimuth and elevation plus other details from your city location.

Track the satellite on the map from your city or location and see movement details for azimuth, elevation, latitude, longitude, range, height, and movement on the map or in text.







IsCatalogInMostPopularTable: catalog: 43611, numindb: 739
Update: records affected: 1



GetName: 43611 TELSTAR 18V (APSTAR 5C)

Hit Count: updated at: Sun, 26 Sep 2021 01:14:41 GMT